User: anonymous   Login
Location: Unspecified
(0.0000°N, 0.0000°E)
Time: 19:10:47
(UTC+00:00)
Language:

COSMOS 2452 - Orbit

View from above orbital plane
View from above orbital plane
View from above satellite
View from above satellite

Ground track
Ground track

The orbit data is extracted from the following two-line orbital elements,

1 35499U 09036B   18140.19593570  .00000008  00000-0 -11289-4 0  9995
2 35499  82.4866 116.7058 0017390  92.1275 268.1783 12.42910026402413
Epoch (UTC): 20 May 2018 04:42:08
Eccentricity: 0.0017390
inclination: 82.4866°
perigee height: 1480 km
apogee height: 1508 km
right ascension of ascending node: 116.7058°
argument of perigee: 92.1275°
revolutions per day: 12.42910026
mean anomaly at epoch: 268.1783°
orbit number at epoch: 40241

The dashed part of the orbit path shows where the satellite is in the earth's shadow,  

DLR